Location: Newark
(45.5000°N, 11.4167°E)
Time: 00:12:29
(UTC+00:00)

Vanguard 3 - Pass Details

Date: 27 August 2019
Orbit: 508 x 3262 km, 33.3° (Epoch: 18 October)

Event Time Altitude Azimuth Distance (km) Brightness Sun altitude
Rises 19:09:52 0° 259° (W) 3,654 11.4 -11.9°
Reaches altitude 10° 19:14:56 10° 225° (SW) 2,179 9.6 -12.7°
Maximum altitude 19:16:12 11° 209° (SSW) 2,006 9.2 -12.9°
Drops below altitude 10° 19:17:23 10° 194° (SSW) 1,975 9.0 -13.1°
Enters shadow 19:18:59 - 173° (S) 2,143 9.0 -13.3°
Sets 19:21:06 0° 154° (SSE) 2,652 - -13.6°
